Tiempo cada hora Dabrowa

Hoy, 4 Agosto, Miércoles

Tiempo Temperatura Precipitaciones Viento Presión Humedad
00:00 +15°C° 0.2 mm 1 mps 741 mmHg 87%
01:00 +15°C° 0.2 mm 2 mps 741 mmHg 87%
02:00 +14°C° 0.1 mm 2 mps 741 mmHg 88%
03:00 +14°C° 0.1 mm 2 mps 741 mmHg 89%
04:00 +14°C° 0.1 mm 2 mps 740 mmHg 90%
05:00 +15°C° 0 mm 2 mps 741 mmHg 86%
06:00 +17°C° 0 mm 2 mps 741 mmHg 82%
07:00 +18°C° 0 mm 2 mps 741 mmHg 78%
08:00 +19°C° 0.1 mm 2 mps 741 mmHg 73%
09:00 +21°C° 0.1 mm 2 mps 741 mmHg 68%
10:00 +23°C° 0.1 mm 2 mps 741 mmHg 62%
11:00 +21°C° 0.5 mm 2 mps 741 mmHg 66%
12:00 +21°C° 0.5 mm 2 mps 741 mmHg 69%
13:00 +21°C° 0.5 mm 3 mps 741 mmHg 72%
14:00 +20°C° 0.1 mm 3 mps 740 mmHg 72%
15:00 +20°C° 0.1 mm 3 mps 740 mmHg 73%
16:00 +20°C° 0.1 mm 3 mps 740 mmHg 73%
17:00 +19°C° 0 mm 3 mps 740 mmHg 78%
18:00 +18°C° 0 mm 2 mps 740 mmHg 83%
19:00 +17°C° 0 mm 2 mps 740 mmHg 88%
20:00 +16°C° 0 mm 2 mps 740 mmHg 90%
21:00 +16°C° 0 mm 2 mps 740 mmHg 92%
22:00 +15°C° 0 mm 2 mps 740 mmHg 93%
23:00 +15°C° 0 mm 2 mps 740 mmHg 94%

Mañana, 5 Agosto, Jueves

Tiempo Temperatura Precipitaciones Viento Presión Humedad
00:00 +15°C° 0 mm 2 mps 740 mmHg 94%
01:00 +14°C° 0 mm 2 mps 740 mmHg 94%
02:00 +14°C° 0 mm 2 mps 739 mmHg 94%
03:00 +14°C° 0 mm 2 mps 739 mmHg 95%
04:00 +14°C° 0 mm 2 mps 739 mmHg 95%
05:00 +15°C° 0 mm 2 mps 739 mmHg 91%
06:00 +16°C° 0 mm 3 mps 739 mmHg 87%
07:00 +17°C° 0 mm 3 mps 739 mmHg 83%
08:00 +18°C° 0 mm 3 mps 739 mmHg 78%
09:00 +19°C° 0 mm 3 mps 738 mmHg 74%
10:00 +21°C° 0 mm 3 mps 738 mmHg 70%
11:00 +21°C° 0.1 mm 3 mps 738 mmHg 71%
12:00 +21°C° 0.1 mm 2 mps 738 mmHg 71%
13:00 +21°C° 0.1 mm 2 mps 737 mmHg 72%
14:00 +20°C° 0.1 mm 3 mps 737 mmHg 77%
15:00 +20°C° 0.1 mm 3 mps 736 mmHg 81%
16:00 +19°C° 0.1 mm 4 mps 736 mmHg 86%
17:00 +18°C° 0.4 mm 4 mps 736 mmHg 89%
18:00 +18°C° 0.4 mm 4 mps 735 mmHg 92%
19:00 +18°C° 0.4 mm 3 mps 735 mmHg 95%
20:00 +17°C° 1.3 mm 3 mps 734 mmHg 95%
21:00 +17°C° 1.3 mm 3 mps 734 mmHg 96%
22:00 +17°C° 1.3 mm 3 mps 733 mmHg 97%
23:00 +17°C° 2.1 mm 3 mps 733 mmHg 98%

Pasado mañana, 6 Agosto, Viernes

Tiempo Temperatura Precipitaciones Viento Presión Humedad
00:00 +17°C° 2.1 mm 2 mps 733 mmHg 98%
01:00 +17°C° 2.1 mm 2 mps 732 mmHg 99%
02:00 +17°C° 2.3 mm 2 mps 732 mmHg 98%
03:00 +17°C° 2.3 mm 3 mps 732 mmHg 98%
04:00 +17°C° 2.3 mm 3 mps 732 mmHg 98%
05:00 +17°C° 0.3 mm 3 mps 732 mmHg 98%
06:00 +17°C° 0.3 mm 3 mps 732 mmHg 97%
07:00 +17°C° 0.3 mm 3 mps 732 mmHg 97%
08:00 +17°C° 0 mm 3 mps 732 mmHg 94%
09:00 +18°C° 0 mm 4 mps 733 mmHg 92%
10:00 +18°C° 0 mm 4 mps 733 mmHg 89%
11:00 +18°C° 0.2 mm 4 mps 733 mmHg 88%
12:00 +19°C° 0.2 mm 4 mps 734 mmHg 87%
13:00 +19°C° 0.2 mm 5 mps 734 mmHg 86%
14:00 +17°C° 0.1 mm 5 mps 734 mmHg 87%
15:00 +17°C° 0.1 mm 4 mps 734 mmHg 88%
16:00 +17°C° 0.1 mm 4 mps 735 mmHg 89%
17:00 +15°C° 0 mm 4 mps 735 mmHg 90%
18:00 +15°C° 0 mm 4 mps 735 mmHg 90%
19:00 +14°C° 0 mm 4 mps 736 mmHg 90%
20:00 +14°C° 0 mm 4 mps 736 mmHg 90%
21:00 +13°C° 0 mm 3 mps 736 mmHg 89%
22:00 +13°C° 0 mm 3 mps 736 mmHg 89%
23:00 +13°C° 0 mm 3 mps 737 mmHg 90%

7 Agosto, Sábado

Tiempo Temperatura Precipitaciones Viento Presión Humedad
00:00 +12°C° 0 mm 3 mps 737 mmHg 91%
01:00 +12°C° 0 mm 3 mps 737 mmHg 92%
02:00 +13°C° 0 mm 2 mps 737 mmHg 93%
03:00 +13°C° 0 mm 2 mps 737 mmHg 93%
04:00 +12°C° 0 mm 2 mps 738 mmHg 93%
05:00 +14°C° 0 mm 2 mps 738 mmHg 88%
06:00 +15°C° 0 mm 2 mps 738 mmHg 83%
07:00 +16°C° 0 mm 2 mps 738 mmHg 78%
08:00 +18°C° 0 mm 2 mps 739 mmHg 72%
09:00 +19°C° 0 mm 2 mps 739 mmHg 65%
10:00 +21°C° 0 mm 2 mps 739 mmHg 59%
11:00 +23°C° 0 mm 2 mps 739 mmHg 57%
12:00 +24°C° 0 mm 3 mps 739 mmHg 55%
13:00 +25°C° 0 mm 3 mps 739 mmHg 53%
14:00 +25°C° 0 mm 2 mps 739 mmHg 54%
15:00 +26°C° 0 mm 2 mps 739 mmHg 55%
16:00 +26°C° 0 mm 2 mps 739 mmHg 56%
17:00 +24°C° 0 mm 2 mps 739 mmHg 60%
18:00 +23°C° 0 mm 2 mps 739 mmHg 64%
19:00 +21°C° 0 mm 2 mps 739 mmHg 68%
20:00 +20°C° 0 mm 3 mps 739 mmHg 70%
21:00 +19°C° 0 mm 3 mps 739 mmHg 73%
22:00 +19°C° 0 mm 3 mps 740 mmHg 75%
23:00 +18°C° 0 mm 4 mps 739 mmHg 76%

8 Agosto, Domingo

Tiempo Temperatura Precipitaciones Viento Presión Humedad
00:00 +18°C° 0 mm 4 mps 739 mmHg 77%
01:00 +18°C° 0 mm 4 mps 739 mmHg 78%
02:00 +18°C° 0 mm 4 mps 739 mmHg 80%
03:00 +17°C° 0 mm 4 mps 739 mmHg 83%
04:00 +17°C° 0 mm 4 mps 739 mmHg 86%
05:00 +19°C° 0 mm 5 mps 739 mmHg 80%
06:00 +20°C° 0 mm 5 mps 739 mmHg 74%
07:00 +22°C° 0 mm 5 mps 739 mmHg 69%
08:00 +22°C° 0 mm 5 mps 739 mmHg 68%
09:00 +22°C° 0 mm 4 mps 740 mmHg 68%
10:00 +22°C° 0 mm 4 mps 740 mmHg 68%
11:00 +22°C° 0 mm 3 mps 741 mmHg 66%
12:00 +24°C° 0 mm 3 mps 741 mmHg 64%
13:00 +25°C° 0 mm 3 mps 741 mmHg 62%
14:00 +25°C° 0 mm 3 mps 741 mmHg 62%
15:00 +26°C° 0 mm 3 mps 742 mmHg 61%
16:00 +26°C° 0 mm 3 mps 742 mmHg 60%
17:00 +25°C° 0 mm 3 mps 742 mmHg 67%
18:00 +23°C° 0 mm 2 mps 742 mmHg 74%
19:00 +21°C° 0 mm 2 mps 742 mmHg 80%
20:00 +21°C° 0.1 mm 1 mps 743 mmHg 82%
21:00 +20°C° 0.1 mm 1 mps 743 mmHg 84%
22:00 +20°C° 0.1 mm 1 mps 743 mmHg 86%
23:00 +20°C° 0.1 mm 1 mps 744 mmHg 86%

9 Agosto, Lunes

Tiempo Temperatura Precipitaciones Viento Presión Humedad
00:00 +19°C° 0.1 mm 1 mps 744 mmHg 87%
01:00 +19°C° 0.1 mm 1 mps 744 mmHg 88%
02:00 +19°C° 0 mm 1 mps 744 mmHg 87%
03:00 +19°C° 0 mm 1 mps 744 mmHg 86%
04:00 +19°C° 0 mm 1 mps 744 mmHg 86%
05:00 +20°C° 0 mm 1 mps 744 mmHg 82%
06:00 +21°C° 0 mm 1 mps 744 mmHg 77%
07:00 +22°C° 0 mm 1 mps 745 mmHg 73%
08:00 +23°C° 0 mm 1 mps 745 mmHg 68%
09:00 +24°C° 0 mm 1 mps 745 mmHg 62%
10:00 +25°C° 0 mm 2 mps 745 mmHg 57%
11:00 +26°C° 0 mm 1 mps 745 mmHg 53%
12:00 +27°C° 0 mm 1 mps 745 mmHg 50%
13:00 +28°C° 0 mm 1 mps 745 mmHg 47%
14:00 +28°C° 0 mm 1 mps 745 mmHg 48%
15:00 +27°C° 0 mm 1 mps 745 mmHg 49%
16:00 +27°C° 0 mm 1 mps 744 mmHg 51%
17:00 +26°C° 0 mm 1 mps 744 mmHg 55%
18:00 +24°C° 0 mm 1 mps 744 mmHg 60%
19:00 +23°C° 0 mm 1 mps 744 mmHg 65%
20:00 +22°C° 0 mm 1 mps 744 mmHg 67%
21:00 +21°C° 0 mm 1 mps 744 mmHg 69%
22:00 +20°C° 0 mm 1 mps 744 mmHg 71%
23:00 +19°C° 0 mm 2 mps 744 mmHg 71%
Mostrar más

Necesitamos Su Consentimiento

Meteoprog y nuestros Proveedores de Servicios pueden almacenar y acceder a sus datos personales como cookies, identificadores de dispositivo u otras tecnologías similares de su dispositivo y procesar dichos datos para personalizar contenido y anuncios, además de ofrecer funciones de redes sociales y analizar el tráfico.

  • Almacenar y/o acceder a información en su dispositivo

    Se puede almacenar o acceder a cookies, identificadores de dispositivo u otra información de su dispositivo para los fines anteriormente indicados.

  • Anuncios y contenido personalizados, medición de anuncios y contenido, percepciones del público, y desarrollo de productos

    Los anuncios y el contenido pueden personalizarse en base a su perfil. Se pueden añadir más datos para personalizar mejor los anuncios y contenidos. Se puede medir el rendimiento de los anuncios y contenidos. Se puede obtener la percepción sobre el público que ha visto los anuncios y contenidos. Dichos datos pueden usarse para desarrollar o mejorar la experiencia del usuario, sistemas y software.

Al hacer clic en ‘Estoy De Acuerdo’ usted permitirá el uso de las cookies, identificadores de dispositivo, balizas web u otras tecnologías similares indicadas. Su configuración puede cambiarse desde el navegador de su dispositivo.

Para ciertos fines, los intereses legítimos pueden ser considerados por encima del consentimiento. Puede leer más sobre ello en nuestra Política de Privacidad y Cookies.